Time,TemperatureF,DewpointF,PressureIn,WindDirection,WindDirectionDegrees,WindSpeedMPH,WindSpeedGustMPH,Humidity,HourlyPrecipIn,Conditions,Clouds,dailyrainin,SoftwareType,DateUTC
2013-01-30 00:03:00,31.9,29.6,30.13,South,176,0.0,0.0,91,0.00,,,0.00,Wunderground v.1.15,2013-01-30 05:03:00,
2013-01-30 00:05:00,31.9,29.6,30.13,South,176,0.0,0.0,91,0.00,,,0.00,Wunderground v.1.15,2013-01-30 05:05:00,
2013-01-30 00:09:00,31.9,29.6,30.13,South,176,0.0,0.0,91,0.00,,,0.00,Wunderground v.1.15,2013-01-30 05:09:00,
2013-01-30 00:14:00,31.9,29.6,30.13,South,176,0.0,0.0,91,0.00,,,0.00,Wunderground v.1.15,2013-01-30 05:14:00,
2013-01-30 00:15:00,31.9,29.6,30.13,South,177,0.0,1.0,91,0.00,,,0.00,Wunderground v.1.15,2013-01-30 05:15:00,
2013-01-30 00:20:00,31.9,29.3,30.13,South,177,0.0,1.0,90,0.00,,,0.00,Wunderground v.1.15,2013-01-30 05:20:00,
2013-01-30 00:26:00,31.9,29.6,30.13,South,177,0.0,0.0,91,0.00,,,0.00,Wunderground v.1.15,2013-01-30 05:26:00,
2013-01-30 00:31:00,31.9,29.6,30.12,South,177,0.0,0.0,91,0.00,,,0.00,Wunderground v.1.15,2013-01-30 05:31:00,
2013-01-30 00:36:00,31.9,29.6,30.11,South,177,0.0,0.0,91,0.00,,,0.00,Wunderground v.1.15,2013-01-30 05:36:00,
2013-01-30 00:43:00,31.9,29.6,30.11,South,176,0.0,0.0,91,0.00,,,0.00,Wunderground v.1.15,2013-01-30 05:43:00,
2013-01-30 00:49:00,31.9,29.6,30.11,South,177,0.0,0.0,91,0.00,,,0.00,Wunderground v.1.15,2013-01-30 05:49:00,
2013-01-30 00:54:00,32.0,29.7,30.11,South,177,0.0,0.0,91,0.00,,,0.00,Wunderground v.1.15,2013-01-30 05:54:00,
2013-01-30 01:00:00,32.0,29.7,30.11,South,176,0.0,1.0,91,0.00,,,0.00,Wunderground v.1.15,2013-01-30 06:00:00,
2013-01-30 01:06:00,32.0,29.7,30.11,South,177,0.0,1.0,91,0.00,,,0.00,Wunderground v.1.15,2013-01-30 06:06:00,
2013-01-30 01:13:00,32.1,29.8,30.10,South,176,0.0,0.0,91,0.00,,,0.00,Wunderground v.1.15,2013-01-30 06:13:00,
2013-01-30 01:18:00,32.1,29.8,30.10,South,176,0.0,1.0,91,0.00,,,0.00,Wunderground v.1.15,2013-01-30 06:18:00,
2013-01-30 01:24:00,32.1,29.8,30.10,South,176,0.0,0.0,91,0.00,,,0.00,Wunderground v.1.15,2013-01-30 06:24:00,
2013-01-30 01:29:00,32.2,29.9,30.10,South,176,0.0,2.0,91,0.00,,,0.00,Wunderground v.1.15,2013-01-30 06:29:00,
2013-01-30 01:35:00,32.2,29.9,30.11,South,177,0.0,0.0,91,0.00,,,0.00,Wunderground v.1.15,2013-01-30 06:35:00,
2013-01-30 01:40:00,32.3,30.0,30.11,South,177,0.0,0.0,91,0.00,,,0.00,Wunderground v.1.15,2013-01-30 06:40:00,
2013-01-30 01:46:00,32.3,30.0,30.10,South,177,0.0,1.0,91,0.00,,,0.00,Wunderground v.1.15,2013-01-30 06:46:00,
2013-01-30 01:51:00,32.3,30.0,30.10,South,177,0.0,1.0,91,0.00,,,0.00,Wunderground v.1.15,2013-01-30 06:51:00,
2013-01-30 01:58:00,32.3,30.0,30.09,South,177,0.0,0.0,91,0.00,,,0.00,Wunderground v.1.15,2013-01-30 06:58:00,
2013-01-30 02:03:00,32.3,30.0,30.09,South,176,0.0,0.0,91,0.00,,,0.00,Wunderground v.1.15,2013-01-30 07:03:00,
2013-01-30 02:08:00,32.3,30.0,30.09,South,176,0.0,0.0,91,0.00,,,0.00,Wunderground v.1.15,2013-01-30 07:08:00,
2013-01-30 02:14:00,32.3,30.0,30.09,South,177,0.0,0.0,91,0.00,,,0.00,Wunderground v.1.15,2013-01-30 07:14:00,
2013-01-30 02:19:00,32.3,30.0,30.08,South,177,0.0,1.0,91,0.00,,,0.00,Wunderground v.1.15,2013-01-30 07:19:00,
2013-01-30 02:24:00,32.3,30.0,30.08,South,176,0.0,0.0,91,0.00,,,0.00,Wunderground v.1.15,2013-01-30 07:24:00,
2013-01-30 02:29:00,32.3,30.0,30.07,South,176,0.0,0.0,91,0.00,,,0.00,Wunderground v.1.15,2013-01-30 07:29:00,
2013-01-30 02:35:00,32.3,30.0,30.07,South,177,0.0,1.0,91,0.00,,,0.00,Wunderground v.1.15,2013-01-30 07:35:00,
2013-01-30 02:40:00,32.3,30.0,30.06,South,177,0.0,1.0,91,0.00,,,0.00,Wunderground v.1.15,2013-01-30 07:40:00,
2013-01-30 02:46:00,32.3,30.0,30.06,SE,144,0.0,0.0,91,0.00,,,0.00,Wunderground v.1.15,2013-01-30 07:46:00,
2013-01-30 02:53:00,32.3,30.0,30.06,SE,144,0.0,0.0,91,0.00,,,0.00,Wunderground v.1.15,2013-01-30 07:53:00,
2013-01-30 02:58:00,32.3,30.0,30.05,SE,144,0.0,0.0,91,0.00,,,0.00,Wunderground v.1.15,2013-01-30 07:58:00,
2013-01-30 03:04:00,32.3,30.0,30.05,SE,144,0.0,0.0,91,0.00,,,0.00,Wunderground v.1.15,2013-01-30 08:04:00,
2013-01-30 03:10:00,32.3,30.0,30.04,SE,144,0.0,0.0,91,0.00,,,0.00,Wunderground v.1.15,2013-01-30 08:10:00,
2013-01-30 03:15:00,32.3,30.0,30.04,SE,144,0.0,0.0,91,0.00,,,0.00,Wunderground v.1.15,2013-01-30 08:15:00,
2013-01-30 03:20:00,32.3,30.0,30.04,SE,144,0.0,0.0,91,0.00,,,0.00,Wunderground v.1.15,2013-01-30 08:20:00,
2013-01-30 03:26:00,32.3,30.0,30.03,SE,144,0.0,0.0,91,0.00,,,0.00,Wunderground v.1.15,2013-01-30 08:26:00,
2013-01-30 03:33:00,32.3,30.0,30.03,SE,144,0.0,0.0,91,0.00,,,0.00,Wunderground v.1.15,2013-01-30 08:33:00,
2013-01-30 03:38:00,32.3,30.0,30.03,SE,144,0.0,0.0,91,0.00,,,0.00,Wunderground v.1.15,2013-01-30 08:38:00,
2013-01-30 03:44:00,32.3,30.0,30.03,SE,144,0.0,0.0,91,0.00,,,0.00,Wunderground v.1.15,2013-01-30 08:44:00,
2013-01-30 03:51:00,32.3,30.0,30.02,SE,144,0.0,0.0,91,0.00,,,0.00,Wunderground v.1.15,2013-01-30 08:51:00,
2013-01-30 03:56:00,32.3,30.0,30.01,SE,144,0.0,0.0,91,0.00,,,0.00,Wunderground v.1.15,2013-01-30 08:56:00,
2013-01-30 04:03:00,32.3,30.0,30.01,SE,144,0.0,0.0,91,0.00,,,0.00,Wunderground v.1.15,2013-01-30 09:03:00,
2013-01-30 04:08:00,32.3,30.0,30.01,SE,144,0.0,0.0,91,0.00,,,0.00,Wunderground v.1.15,2013-01-30 09:08:00,
2013-01-30 04:14:00,32.3,30.0,30.01,SE,144,0.0,0.0,91,0.00,,,0.00,Wunderground v.1.15,2013-01-30 09:14:00,
2013-01-30 04:19:00,32.3,30.0,30.02,SW,236,0.0,1.0,91,0.00,,,0.00,Wunderground v.1.15,2013-01-30 09:19:00,
2013-01-30 04:25:00,32.3,30.0,30.02,SW,236,0.0,0.0,91,0.00,,,0.00,Wunderground v.1.15,2013-01-30 09:25:00,
2013-01-30 04:31:00,32.4,30.1,30.01,SW,236,0.0,0.0,91,0.00,,,0.00,Wunderground v.1.15,2013-01-30 09:31:00,
2013-01-30 04:38:00,32.4,30.1,30.01,SW,236,0.0,0.0,91,0.00,,,0.00,Wunderground v.1.15,2013-01-30 09:38:00,
2013-01-30 04:44:00,32.4,30.1,30.00,SW,236,0.0,0.0,91,0.00,,,0.00,Wunderground v.1.15,2013-01-30 09:44:00,
2013-01-30 04:50:00,32.3,30.0,30.00,SW,236,0.0,0.0,91,0.00,,,0.00,Wunderground v.1.15,2013-01-30 09:50:00,
2013-01-30 04:55:00,32.4,30.1,30.00,SW,236,0.0,0.0,91,0.00,,,0.00,Wunderground v.1.15,2013-01-30 09:55:00,
2013-01-30 05:01:00,32.4,30.1,30.00,SW,218,0.0,0.0,91,0.00,,,0.00,Wunderground v.1.15,2013-01-30 10:01:00,
2013-01-30 05:08:00,32.7,30.4,29.99,SSW,202,0.0,1.0,91,0.00,,,0.00,Wunderground v.1.15,2013-01-30 10:08:00,
2013-01-30 05:14:00,32.9,30.6,29.99,SSW,202,1.0,1.0,91,0.00,,,0.00,Wunderground v.1.15,2013-01-30 10:14:00,
2013-01-30 05:20:00,33.0,30.7,29.98,South,184,1.0,1.0,91,0.00,,,0.00,Wunderground v.1.15,2013-01-30 10:20:00,
2013-01-30 05:25:00,33.2,30.9,29.98,SSE,164,1.0,1.0,91,0.00,,,0.00,Wunderground v.1.15,2013-01-30 10:25:00,
2013-01-30 05:31:00,33.4,31.1,29.98,South,178,1.0,2.0,91,0.00,,,0.00,Wunderground v.1.15,2013-01-30 10:31:00,
2013-01-30 05:36:00,33.6,31.3,29.98,SE,140,1.0,2.0,91,0.00,,,0.00,Wunderground v.1.15,2013-01-30 10:36:00,
2013-01-30 05:43:00,33.8,31.5,29.98,SE,144,0.0,0.0,91,0.00,,,0.00,Wunderground v.1.15,2013-01-30 10:43:00,
2013-01-30 05:48:00,33.9,31.6,29.98,SSW,211,0.0,2.0,91,0.00,,,0.00,Wunderground v.1.15,2013-01-30 10:48:00,
2013-01-30 05:54:00,34.2,31.8,29.98,SSW,198,1.0,4.0,91,0.00,,,0.00,Wunderground v.1.15,2013-01-30 10:54:00,
2013-01-30 05:59:00,34.4,32.0,29.98,WSW,240,1.0,4.0,91,0.00,,,0.00,Wunderground v.1.15,2013-01-30 10:59:00,
2013-01-30 06:06:00,34.8,32.4,29.97,SW,223,2.0,3.0,91,0.00,,,0.00,Wunderground v.1.15,2013-01-30 11:06:00,
2013-01-30 06:11:00,35.3,32.9,29.97,SSE,165,2.0,3.0,91,0.00,,,0.00,Wunderground v.1.15,2013-01-30 11:11:00,
2013-01-30 06:18:00,35.8,33.4,29.97,South,170,2.0,4.0,91,0.00,,,0.00,Wunderground v.1.15,2013-01-30 11:18:00,
2013-01-30 06:24:00,36.3,34.2,29.97,SSE,151,2.0,4.0,92,0.00,,,0.00,Wunderground v.1.15,2013-01-30 11:24:00,
2013-01-30 06:30:00,36.8,34.7,29.97,SSE,152,2.0,5.0,92,0.00,,,0.00,Wunderground v.1.15,2013-01-30 11:30:00,
2013-01-30 06:36:00,36.9,34.8,29.97,SSE,166,2.0,3.0,92,0.00,,,0.00,Wunderground v.1.15,2013-01-30 11:36:00,
2013-01-30 06:43:00,37.1,34.7,29.96,SE,134,1.0,1.0,91,0.00,,,0.00,Wunderground v.1.15,2013-01-30 11:43:00,
2013-01-30 06:49:00,37.4,35.3,29.95,SSE,149,2.0,5.0,92,0.00,,,0.00,Wunderground v.1.15,2013-01-30 11:49:00,
2013-01-30 06:54:00,37.6,35.5,29.95,SW,221,2.0,5.0,92,0.00,,,0.00,Wunderground v.1.15,2013-01-30 11:54:00,
2013-01-30 07:00:00,37.8,35.7,29.94,SE,146,2.0,7.0,92,0.00,,,0.00,Wunderground v.1.15,2013-01-30 12:00:00,
2013-01-30 07:06:00,37.9,35.8,29.93,SSE,155,3.0,5.0,92,0.00,,,0.00,Wunderground v.1.15,2013-01-30 12:06:00,
2013-01-30 07:11:00,38.3,36.2,29.93,SSE,154,3.0,5.0,92,0.00,,,0.00,Wunderground v.1.15,2013-01-30 12:11:00,
2013-01-30 07:16:00,38.6,36.5,29.93,SE,136,3.0,4.0,92,0.00,,,0.00,Wunderground v.1.15,2013-01-30 12:16:00,
2013-01-30 07:23:00,38.8,36.7,29.92,SSW,203,3.0,4.0,92,0.00,,,0.00,Wunderground v.1.15,2013-01-30 12:23:00,
2013-01-30 07:29:00,38.9,36.8,29.92,SW,221,3.0,8.0,92,0.00,,,0.00,Wunderground v.1.15,2013-01-30 12:29:00,
2013-01-30 07:34:00,38.9,36.8,29.92,South,184,3.0,3.0,92,0.00,,,0.00,Wunderground v.1.15,2013-01-30 12:34:00,
2013-01-30 07:39:00,38.9,36.8,29.92,SSE,155,2.0,3.0,92,0.00,,,0.00,Wunderground v.1.15,2013-01-30 12:39:00,
2013-01-30 07:45:00,39.2,37.1,29.91,South,171,3.0,3.0,92,0.00,,,0.00,Wunderground v.1.15,2013-01-30 12:45:00,
2013-01-30 07:51:00,39.5,37.4,29.91,WSW,241,3.0,6.0,92,0.00,,,0.00,Wunderground v.1.15,2013-01-30 12:51:00,
2013-01-30 07:58:00,39.7,37.6,29.91,SSE,164,3.0,6.0,92,0.00,,,0.00,Wunderground v.1.15,2013-01-30 12:58:00,
2013-01-30 08:04:00,40.1,38.0,29.91,South,171,3.0,5.0,92,0.00,,,0.00,Wunderground v.1.15,2013-01-30 13:04:00,
2013-01-30 08:10:00,40.3,38.2,29.91,SSW,201,3.0,5.0,92,0.00,,,0.00,Wunderground v.1.15,2013-01-30 13:10:00,
2013-01-30 08:15:00,40.4,38.3,29.90,SSE,162,2.0,5.0,92,0.00,,,0.00,Wunderground v.1.15,2013-01-30 13:15:00,
2013-01-30 08:21:00,40.6,38.5,29.90,South,169,3.0,5.0,92,0.00,,,0.00,Wunderground v.1.15,2013-01-30 13:21:00,
2013-01-30 08:26:00,40.7,38.6,29.90,SSW,196,3.0,7.0,92,0.00,,,0.00,Wunderground v.1.15,2013-01-30 13:26:00,
2013-01-30 08:33:00,41.0,38.9,29.89,SSE,150,3.0,3.0,92,0.00,,,0.00,Wunderground v.1.15,2013-01-30 13:33:00,
2013-01-30 08:39:00,41.0,38.9,29.89,South,188,2.0,5.0,92,0.00,,,0.00,Wunderground v.1.15,2013-01-30 13:39:00,
2013-01-30 08:44:00,41.1,39.0,29.89,SSE,163,2.0,2.0,92,0.00,,,0.00,Wunderground v.1.15,2013-01-30 13:44:00,
2013-01-30 08:50:00,41.3,39.2,29.89,South,178,1.0,2.0,92,0.00,,,0.00,Wunderground v.1.15,2013-01-30 13:50:00,
2013-01-30 08:55:00,41.3,39.2,29.88,SE,126,1.0,3.0,92,0.00,,,0.00,Wunderground v.1.15,2013-01-30 13:55:00,
2013-01-30 09:01:00,41.4,39.3,29.88,SSE,155,1.0,3.0,92,0.00,,,0.00,Wunderground v.1.15,2013-01-30 14:01:00,
2013-01-30 09:08:00,42.1,39.9,29.88,South,187,2.0,4.0,92,0.00,,,0.00,Wunderground v.1.15,2013-01-30 14:08:00,
2013-01-30 09:14:00,42.5,40.3,29.88,SSW,198,1.0,2.0,92,0.00,,,0.00,Wunderground v.1.15,2013-01-30 14:14:00,
2013-01-30 09:19:00,42.9,40.7,29.87,South,184,1.0,3.0,92,0.00,,,0.00,Wunderground v.1.15,2013-01-30 14:19:00,
2013-01-30 09:25:00,43.2,41.0,29.86,ESE,113,1.0,3.0,92,0.00,,,0.00,Wunderground v.1.15,2013-01-30 14:25:00,
2013-01-30 09:31:00,43.5,41.3,29.86,South,184,1.0,3.0,92,0.00,,,0.00,Wunderground v.1.15,2013-01-30 14:31:00,
2013-01-30 09:38:00,44.1,41.9,29.85,South,188,2.0,4.0,92,0.00,,,0.00,Wunderground v.1.15,2013-01-30 14:38:00,
2013-01-30 09:43:00,45.0,42.8,29.84,SSE,164,3.0,5.0,92,0.00,,,0.00,Wunderground v.1.15,2013-01-30 14:43:00,
2013-01-30 09:48:00,45.7,43.5,29.85,SSW,211,3.0,5.0,92,0.00,,,0.00,Wunderground v.1.15,2013-01-30 14:48:00,
2013-01-30 09:53:00,46.7,44.5,29.85,WSW,246,4.0,4.0,92,0.00,,,0.00,Wunderground v.1.15,2013-01-30 14:53:00,
2013-01-30 09:59:00,47.5,45.3,29.85,NNW,340,4.0,7.0,92,0.00,,,0.00,Wunderground v.1.15,2013-01-30 14:59:00,
2013-01-30 10:05:00,48.3,46.1,29.85,SSE,168,4.0,4.0,92,0.00,,,0.00,Wunderground v.1.15,2013-01-30 15:05:00,
2013-01-30 10:11:00,48.7,46.8,29.84,SSW,213,4.0,7.0,93,0.00,,,0.00,Wunderground v.1.15,2013-01-30 15:11:00,
2013-01-30 10:16:00,48.9,47.0,29.84,SSW,194,5.0,7.0,93,0.00,,,0.00,Wunderground v.1.15,2013-01-30 15:16:00,
2013-01-30 10:21:00,49.2,47.3,29.84,SE,138,4.0,8.0,93,0.00,,,0.00,Wunderground v.1.15,2013-01-30 15:21:00,
2013-01-30 10:26:00,49.3,47.4,29.84,SSW,195,5.0,7.0,93,0.00,,,0.00,Wunderground v.1.15,2013-01-30 15:26:00,
2013-01-30 10:31:00,49.5,47.6,29.83,SSE,157,5.0,10.0,93,0.00,,,0.00,Wunderground v.1.15,2013-01-30 15:31:00,
2013-01-30 10:38:00,49.8,47.6,29.83,South,187,5.0,6.0,92,0.00,,,0.00,Wunderground v.1.15,2013-01-30 15:38:00,
2013-01-30 10:43:00,50.0,48.1,29.83,SSW,208,5.0,7.0,93,0.00,,,0.00,Wunderground v.1.15,2013-01-30 15:43:00,
2013-01-30 10:48:00,50.3,48.4,29.82,WSW,238,5.0,11.0,93,0.00,,,0.00,Wunderground v.1.15,2013-01-30 15:48:00,
2013-01-30 10:54:00,50.5,48.6,29.81,SSW,212,5.0,7.0,93,0.00,,,0.00,Wunderground v.1.15,2013-01-30 15:54:00,
2013-01-30 10:59:00,50.5,48.6,29.81,West,264,5.0,7.0,93,0.00,,,0.00,Wunderground v.1.15,2013-01-30 15:59:00,
2013-01-30 11:05:00,50.8,48.8,29.80,South,178,6.0,9.0,93,0.00,,,0.00,Wunderground v.1.15,2013-01-30 16:05:00,
2013-01-30 11:11:00,51.1,49.1,29.79,SSW,194,7.0,9.0,93,0.00,,,0.00,Wunderground v.1.15,2013-01-30 16:11:00,
2013-01-30 11:16:00,51.2,49.2,29.78,SSE,165,6.0,7.0,93,0.00,,,0.00,Wunderground v.1.15,2013-01-30 16:16:00,
2013-01-30 11:21:00,51.2,49.2,29.78,South,190,6.0,7.0,93,0.00,,,0.00,Wunderground v.1.15,2013-01-30 16:21:00,
2013-01-30 11:28:00,51.4,49.4,29.78,SSW,200,5.0,7.0,93,0.00,,,0.00,Wunderground v.1.15,2013-01-30 16:28:00,
2013-01-30 11:34:00,51.5,49.5,29.77,SSE,150,6.0,9.0,93,0.00,,,0.00,Wunderground v.1.15,2013-01-30 16:34:00,
2013-01-30 11:40:00,51.7,49.7,29.76,SSW,196,5.0,9.0,93,0.00,,,0.00,Wunderground v.1.15,2013-01-30 16:40:00,
2013-01-30 11:46:00,51.6,49.6,29.76,SW,218,5.0,7.0,93,0.00,,,0.00,Wunderground v.1.15,2013-01-30 16:46:00,
2013-01-30 11:51:00,51.7,49.7,29.75,SSW,199,5.0,7.0,93,0.00,,,0.00,Wunderground v.1.15,2013-01-30 16:51:00,
2013-01-30 11:56:00,51.9,49.9,29.75,SW,226,5.0,13.0,93,0.00,,,0.00,Wunderground v.1.15,2013-01-30 16:56:00,
2013-01-30 12:01:00,52.1,50.1,29.74,SSE,150,5.0,13.0,93,0.00,,,0.00,Wunderground v.1.15,2013-01-30 17:01:00,
2013-01-30 12:08:00,52.4,50.4,29.73,SE,124,4.0,5.0,93,0.00,,,0.00,Wunderground v.1.15,2013-01-30 17:08:00,
2013-01-30 12:14:00,52.5,50.5,29.72,SW,219,3.0,4.0,93,0.00,,,0.00,Wunderground v.1.15,2013-01-30 17:14:00,
2013-01-30 12:19:00,52.6,50.6,29.72,SSE,163,3.0,5.0,93,0.00,,,0.00,Wunderground v.1.15,2013-01-30 17:19:00,
2013-01-30 12:24:00,52.7,50.7,29.72,South,188,3.0,3.0,93,0.00,,,0.00,Wunderground v.1.15,2013-01-30 17:24:00,
2013-01-30 12:29:00,52.8,50.8,29.71,South,178,4.0,7.0,93,0.00,,,0.00,Wunderground v.1.15,2013-01-30 17:29:00,
2013-01-30 12:35:00,53.0,51.0,29.71,South,178,4.0,4.0,93,0.00,,,0.00,Wunderground v.1.15,2013-01-30 17:35:00,
2013-01-30 12:40:00,53.0,51.0,29.70,SSW,206,3.0,4.0,93,0.00,,,0.00,Wunderground v.1.15,2013-01-30 17:40:00,
2013-01-30 12:46:00,53.2,51.2,29.70,SSE,156,4.0,5.0,93,0.00,,,0.00,Wunderground v.1.15,2013-01-30 17:46:00,
2013-01-30 12:51:00,53.5,51.5,29.69,SSW,193,5.0,8.0,93,0.00,,,0.00,Wunderground v.1.15,2013-01-30 17:51:00,
2013-01-30 12:58:00,53.8,51.8,29.69,South,172,5.0,10.0,93,0.00,,,0.00,Wunderground v.1.15,2013-01-30 17:58:00,
2013-01-30 13:03:00,53.9,51.9,29.69,SSE,161,5.0,5.0,93,0.00,,,0.00,Wunderground v.1.15,2013-01-30 18:03:00,
2013-01-30 13:08:00,54.1,52.1,29.68,South,181,4.0,7.0,93,0.00,,,0.00,Wunderground v.1.15,2013-01-30 18:08:00,
2013-01-30 13:14:00,54.2,52.2,29.69,SSW,209,5.0,5.0,93,0.00,,,0.00,Wunderground v.1.15,2013-01-30 18:14:00,
2013-01-30 13:19:00,54.3,52.3,29.69,West,277,4.0,6.0,93,0.00,,,0.00,Wunderground v.1.15,2013-01-30 18:19:00,
2013-01-30 13:24:00,54.4,52.4,29.68,WSW,243,4.0,6.0,93,0.00,,,0.00,Wunderground v.1.15,2013-01-30 18:24:00,
2013-01-30 13:30:00,54.8,52.8,29.67,SSW,213,5.0,12.0,93,0.00,,,0.00,Wunderground v.1.15,2013-01-30 18:30:00,
2013-01-30 13:35:00,54.8,52.8,29.67,SW,236,5.0,8.0,93,0.00,,,0.00,Wunderground v.1.15,2013-01-30 18:35:00,
2013-01-30 13:40:00,55.1,53.1,29.67,South,176,5.0,9.0,93,0.00,,,0.00,Wunderground v.1.15,2013-01-30 18:40:00,
2013-01-30 13:46:00,55.4,53.4,29.67,WSW,252,6.0,7.0,93,0.00,,,0.00,Wunderground v.1.15,2013-01-30 18:46:00,
2013-01-30 13:51:00,55.8,53.8,29.66,WSW,246,7.0,10.0,93,0.00,,,0.00,Wunderground v.1.15,2013-01-30 18:51:00,
2013-01-30 13:58:00,56.2,54.2,29.66,SSW,209,9.0,14.0,93,0.00,,,0.00,Wunderground v.1.15,2013-01-30 18:58:00,
2013-01-30 14:03:00,56.3,54.3,29.66,SW,235,9.0,9.0,93,0.00,,,0.00,Wunderground v.1.15,2013-01-30 19:03:00,
2013-01-30 14:08:00,56.4,54.4,29.65,SSE,156,8.0,19.0,93,0.00,,,0.00,Wunderground v.1.15,2013-01-30 19:08:00,
2013-01-30 14:14:00,56.7,54.7,29.65,WSW,246,10.0,12.0,93,0.00,,,0.00,Wunderground v.1.15,2013-01-30 19:14:00,
2013-01-30 14:19:00,56.8,54.8,29.65,SW,214,9.0,16.0,93,0.00,,,0.00,Wunderground v.1.15,2013-01-30 19:19:00,
2013-01-30 14:25:00,57.2,55.2,29.65,South,190,9.0,11.0,93,0.00,,,0.00,Wunderground v.1.15,2013-01-30 19:25:00,
2013-01-30 14:30:00,57.3,55.0,29.65,SSW,194,8.0,11.0,92,0.00,,,0.00,Wunderground v.1.15,2013-01-30 19:30:00,
2013-01-30 14:36:00,57.3,55.0,29.64,WSW,251,8.0,20.0,92,0.00,,,0.00,Wunderground v.1.15,2013-01-30 19:36:00,
2013-01-30 14:41:00,57.5,54.9,29.65,SSW,213,7.0,20.0,91,0.00,,,0.00,Wunderground v.1.15,2013-01-30 19:41:00,
2013-01-30 14:46:00,57.4,54.8,29.65,West,272,7.0,16.0,91,0.00,,,0.00,Wunderground v.1.15,2013-01-30 19:46:00,
2013-01-30 14:51:00,57.6,55.3,29.64,West,264,8.0,16.0,92,0.00,,,0.00,Wunderground v.1.15,2013-01-30 19:51:00,
2013-01-30 14:58:00,57.8,55.2,29.64,South,191,7.0,16.0,91,0.00,,,0.00,Wunderground v.1.15,2013-01-30 19:58:00,
2013-01-30 15:03:00,57.8,55.2,29.64,WSW,253,8.0,10.0,91,0.00,,,0.00,Wunderground v.1.15,2013-01-30 20:03:00,
2013-01-30 15:09:00,57.8,55.2,29.64,SW,223,7.0,10.0,91,0.00,,,0.00,Wunderground v.1.15,2013-01-30 20:09:00,
2013-01-30 15:14:00,57.7,55.1,29.64,NW,304,6.0,6.0,91,0.00,,,0.00,Wunderground v.1.15,2013-01-30 20:14:00,
2013-01-30 15:20:00,57.6,54.7,29.64,WSW,257,7.0,14.0,90,0.00,,,0.00,Wunderground v.1.15,2013-01-30 20:20:00,
2013-01-30 15:26:00,57.6,54.7,29.64,SSW,199,7.0,13.0,90,0.00,,,0.00,Wunderground v.1.15,2013-01-30 20:26:00,
2013-01-30 15:33:00,57.5,54.6,29.63,SW,218,7.0,7.0,90,0.00,,,0.00,Wunderground v.1.15,2013-01-30 20:33:00,
2013-01-30 15:39:00,57.3,54.4,29.63,WSW,249,7.0,11.0,90,0.00,,,0.00,Wunderground v.1.15,2013-01-30 20:39:00,
2013-01-30 15:45:00,57.4,54.5,29.63,WSW,240,7.0,12.0,90,0.00,,,0.00,Wunderground v.1.15,2013-01-30 20:45:00,
2013-01-30 15:51:00,57.4,54.5,29.62,SW,222,8.0,14.0,90,0.00,,,0.00,Wunderground v.1.15,2013-01-30 20:51:00,
2013-01-30 15:56:00,57.3,54.4,29.63,SW,230,7.0,9.0,90,0.00,,,0.00,Wunderground v.1.15,2013-01-30 20:56:00,
2013-01-30 16:01:00,57.3,54.4,29.62,WSW,238,6.0,9.0,90,0.00,,,0.00,Wunderground v.1.15,2013-01-30 21:01:00,
2013-01-30 16:09:00,57.3,54.4,29.62,SW,230,7.0,10.0,90,0.00,,,0.00,Wunderground v.1.15,2013-01-30 21:09:00,
2013-01-30 16:14:00,57.3,54.4,29.62,SSE,157,8.0,8.0,90,0.00,,,0.00,Wunderground v.1.15,2013-01-30 21:14:00,
2013-01-30 16:19:00,57.4,54.5,29.62,SW,232,7.0,14.0,90,0.00,,,0.00,Wunderground v.1.15,2013-01-30 21:19:00,
2013-01-30 16:24:00,57.5,54.6,29.62,SW,228,8.0,13.0,90,0.00,,,0.00,Wunderground v.1.15,2013-01-30 21:24:00,
2013-01-30 16:30:00,57.6,54.7,29.62,SSW,198,9.0,13.0,90,0.00,,,0.00,Wunderground v.1.15,2013-01-30 21:30:00,
2013-01-30 16:35:00,57.7,54.8,29.62,SW,218,9.0,9.0,90,0.00,,,0.00,Wunderground v.1.15,2013-01-30 21:35:00,
2013-01-30 16:41:00,57.6,54.7,29.61,South,180,8.0,10.0,90,0.00,,,0.00,Wunderground v.1.15,2013-01-30 21:41:00,
2013-01-30 16:48:00,57.3,54.4,29.62,SE,132,7.0,12.0,90,0.00,,,0.00,Wunderground v.1.15,2013-01-30 21:48:00,
2013-01-30 16:53:00,57.2,54.3,29.62,SSW,213,7.0,7.0,90,0.00,,,0.00,Wunderground v.1.15,2013-01-30 21:53:00,
2013-01-30 16:59:00,57.2,54.3,29.63,SSW,207,8.0,9.0,90,0.00,,,0.00,Wunderground v.1.15,2013-01-30 21:59:00,
2013-01-30 17:06:00,57.3,54.4,29.62,SW,227,7.0,16.0,90,0.00,,,0.00,Wunderground v.1.15,2013-01-30 22:06:00,
2013-01-30 17:11:00,57.3,54.4,29.62,SW,233,7.0,16.0,90,0.00,,,0.00,Wunderground v.1.15,2013-01-30 22:11:00,
2013-01-30 17:16:00,57.3,54.4,29.63,SSW,209,7.0,11.0,90,0.00,,,0.00,Wunderground v.1.15,2013-01-30 22:16:00,
2013-01-30 17:23:00,57.2,54.3,29.62,West,279,7.0,14.0,90,0.00,,,0.00,Wunderground v.1.15,2013-01-30 22:23:00,
2013-01-30 17:28:00,57.2,54.3,29.62,SSW,192,7.0,17.0,90,0.00,,,0.00,Wunderground v.1.15,2013-01-30 22:28:00,
2013-01-30 17:34:00,57.3,54.4,29.62,SSW,199,8.0,8.0,90,0.00,,,0.00,Wunderground v.1.15,2013-01-30 22:34:00,
2013-01-30 17:40:00,57.2,54.3,29.61,SSW,192,7.0,14.0,90,0.00,,,0.00,Wunderground v.1.15,2013-01-30 22:40:00,
2013-01-30 17:46:00,57.4,54.5,29.60,WNW,296,8.0,13.0,90,0.00,,,0.00,Wunderground v.1.15,2013-01-30 22:46:00,
2013-01-30 17:53:00,57.5,54.6,29.60,SW,234,8.0,8.0,90,0.00,,,0.00,Wunderground v.1.15,2013-01-30 22:53:00,
2013-01-30 17:59:00,57.6,54.7,29.59,South,173,8.0,11.0,90,0.00,,,0.00,Wunderground v.1.15,2013-01-30 22:59:00,
2013-01-30 18:04:00,57.8,54.9,29.60,WSW,255,9.0,11.0,90,0.00,,,0.00,Wunderground v.1.15,2013-01-30 23:04:00,
2013-01-30 18:10:00,58.0,55.1,29.58,SSW,210,9.0,14.0,90,0.00,,,0.00,Wunderground v.1.15,2013-01-30 23:10:00,
2013-01-30 18:16:00,58.0,55.1,29.59,South,174,8.0,17.0,90,0.00,,,0.00,Wunderground v.1.15,2013-01-30 23:16:00,
2013-01-30 18:23:00,58.1,55.2,29.59,SSW,211,8.0,8.0,90,0.00,,,0.00,Wunderground v.1.15,2013-01-30 23:23:00,
2013-01-30 18:28:00,58.2,55.3,29.59,West,272,8.0,18.0,90,0.00,,,0.00,Wunderground v.1.15,2013-01-30 23:28:00,
2013-01-30 18:33:00,58.1,55.2,29.59,West,265,7.0,7.0,90,0.00,,,0.00,Wunderground v.1.15,2013-01-30 23:33:00,
2013-01-30 18:39:00,58.2,55.3,29.58,SSW,201,6.0,9.0,90,0.00,,,0.00,Wunderground v.1.15,2013-01-30 23:39:00,
2013-01-30 18:45:00,58.2,55.3,29.58,SW,232,6.0,9.0,90,0.00,,,0.00,Wunderground v.1.15,2013-01-30 23:45:00,
2013-01-30 18:50:00,58.3,55.1,29.58,SW,225,7.0,15.0,89,0.00,,,0.00,Wunderground v.1.15,2013-01-30 23:50:00,
2013-01-30 18:55:00,58.3,55.1,29.58,SSW,205,8.0,8.0,89,0.00,,,0.00,Wunderground v.1.15,2013-01-30 23:55:00,
2013-01-30 19:01:00,58.4,55.2,29.58,South,188,6.0,11.0,89,0.00,,,0.00,Wunderground v.1.15,2013-01-31 00:01:00,
2013-01-30 19:06:00,58.4,55.2,29.58,SSW,206,6.0,7.0,89,0.00,,,0.00,Wunderground v.1.15,2013-01-31 00:06:00,
2013-01-30 19:11:00,58.7,55.5,29.57,WNW,302,7.0,9.0,89,0.00,,,0.00,Wunderground v.1.15,2013-01-31 00:11:00,
2013-01-30 19:18:00,59.0,55.8,29.58,SSW,193,7.0,11.0,89,0.00,,,0.00,Wunderground v.1.15,2013-01-31 00:18:00,
2013-01-30 19:23:00,59.0,55.8,29.58,WNW,284,8.0,8.0,89,0.00,,,0.00,Wunderground v.1.15,2013-01-31 00:23:00,
2013-01-30 19:29:00,59.0,55.8,29.57,WSW,238,7.0,10.0,89,0.00,,,0.00,Wunderground v.1.15,2013-01-31 00:29:00,
2013-01-30 19:34:00,59.0,55.8,29.57,SW,221,7.0,10.0,89,0.00,,,0.00,Wunderground v.1.15,2013-01-31 00:34:00,
2013-01-30 19:39:00,59.0,55.8,29.57,SSW,209,6.0,10.0,89,0.00,,,0.00,Wunderground v.1.15,2013-01-31 00:39:00,
2013-01-30 19:44:00,59.0,55.8,29.57,SSW,213,7.0,12.0,89,0.00,,,0.00,Wunderground v.1.15,2013-01-31 00:44:00,
2013-01-30 19:49:00,59.0,55.8,29.57,West,276,6.0,12.0,89,0.00,,,0.00,Wunderground v.1.15,2013-01-31 00:49:00,
2013-01-30 19:55:00,59.0,56.1,29.56,West,259,7.0,15.0,90,0.00,,,0.00,Wunderground v.1.15,2013-01-31 00:55:00,
2013-01-30 20:00:00,59.0,56.1,29.56,WSW,237,9.0,20.0,90,0.00,,,0.00,Wunderground v.1.15,2013-01-31 01:00:00,
2013-01-30 20:06:00,59.0,56.1,29.56,WSW,245,7.0,9.0,90,0.00,,,0.00,Wunderground v.1.15,2013-01-31 01:06:00,
2013-01-30 20:11:00,58.8,55.9,29.56,NW,318,6.0,15.0,90,0.00,,,0.00,Wunderground v.1.15,2013-01-31 01:11:00,
2013-01-30 20:18:00,58.5,55.6,29.56,SW,218,6.0,11.0,90,0.00,,,0.00,Wunderground v.1.15,2013-01-31 01:18:00,
2013-01-30 20:23:00,58.4,55.5,29.56,SSW,194,7.0,7.0,90,0.00,,,0.01,Wunderground v.1.15,2013-01-31 01:23:00,
2013-01-30 20:29:00,58.1,55.2,29.56,WSW,246,7.0,9.0,90,0.00,,,0.01,Wunderground v.1.15,2013-01-31 01:29:00,
2013-01-30 20:35:00,57.8,54.9,29.56,ESE,118,6.0,10.0,90,0.00,,,0.01,Wunderground v.1.15,2013-01-31 01:35:00,
2013-01-30 20:41:00,57.7,54.8,29.55,SSW,192,7.0,14.0,90,0.00,,,0.01,Wunderground v.1.15,2013-01-31 01:41:00,
2013-01-30 20:46:00,57.5,54.6,29.55,SSW,203,6.0,6.0,90,0.00,,,0.01,Wunderground v.1.15,2013-01-31 01:46:00,
2013-01-30 20:53:00,57.3,54.4,29.54,SW,229,7.0,7.0,90,0.00,,,0.01,Wunderground v.1.15,2013-01-31 01:53:00,
2013-01-30 20:58:00,57.2,54.3,29.54,SW,229,6.0,11.0,90,0.00,,,0.01,Wunderground v.1.15,2013-01-31 01:58:00,
2013-01-30 21:03:00,57.1,54.2,29.54,SE,143,6.0,6.0,90,0.00,,,0.01,Wunderground v.1.15,2013-01-31 02:03:00,
2013-01-30 21:08:00,57.0,54.1,29.54,South,177,7.0,9.0,90,0.00,,,0.01,Wunderground v.1.15,2013-01-31 02:08:00,
2013-01-30 21:14:00,56.9,54.0,29.54,SSE,163,6.0,12.0,90,0.00,,,0.01,Wunderground v.1.15,2013-01-31 02:14:00,
2013-01-30 21:20:00,56.8,53.9,29.53,South,189,6.0,12.0,90,0.00,,,0.01,Wunderground v.1.15,2013-01-31 02:20:00,
2013-01-30 21:26:00,56.8,53.9,29.53,SW,214,6.0,8.0,90,0.00,,,0.01,Wunderground v.1.15,2013-01-31 02:26:00,
2013-01-30 21:31:00,56.8,53.9,29.52,West,279,6.0,11.0,90,0.00,,,0.01,Wunderground v.1.15,2013-01-31 02:31:00,
2013-01-30 21:36:00,56.7,53.8,29.53,WSW,248,6.0,6.0,90,0.00,,,0.01,Wunderground v.1.15,2013-01-31 02:36:00,
2013-01-30 21:41:00,56.6,53.7,29.52,SW,220,5.0,9.0,90,0.00,,,0.01,Wunderground v.1.15,2013-01-31 02:41:00,
2013-01-30 21:46:00,56.5,53.6,29.53,SW,225,5.0,6.0,90,0.00,,,0.02,Wunderground v.1.15,2013-01-31 02:46:00,
2013-01-30 21:51:00,56.5,53.6,29.52,SW,224,5.0,7.0,90,0.00,,,0.02,Wunderground v.1.15,2013-01-31 02:51:00,
2013-01-30 21:56:00,56.5,53.6,29.52,SSW,208,5.0,7.0,90,0.00,,,0.02,Wunderground v.1.15,2013-01-31 02:56:00,
2013-01-30 22:03:00,56.4,53.5,29.51,SE,143,6.0,6.0,90,0.00,,,0.02,Wunderground v.1.15,2013-01-31 03:03:00,
2013-01-30 22:08:00,56.5,53.6,29.52,SSW,200,6.0,9.0,90,0.00,,,0.02,Wunderground v.1.15,2013-01-31 03:08:00,
2013-01-30 22:14:00,56.5,53.6,29.52,SSW,200,5.0,7.0,90,0.00,,,0.02,Wunderground v.1.15,2013-01-31 03:14:00,
2013-01-30 22:19:00,56.4,53.5,29.52,WSW,243,5.0,8.0,90,0.00,,,0.02,Wunderground v.1.15,2013-01-31 03:19:00,
2013-01-30 22:25:00,56.3,53.4,29.51,SW,228,6.0,9.0,90,0.00,,,0.02,Wunderground v.1.15,2013-01-31 03:25:00,
2013-01-30 22:31:00,56.3,53.4,29.50,SSW,194,6.0,14.0,90,0.00,,,0.02,Wunderground v.1.15,2013-01-31 03:31:00,
2013-01-30 22:36:00,56.3,53.4,29.50,WSW,244,7.0,7.0,90,0.00,,,0.02,Wunderground v.1.15,2013-01-31 03:36:00,
2013-01-30 22:41:00,56.3,53.4,29.50,SW,223,8.0,8.0,90,0.00,,,0.02,Wunderground v.1.15,2013-01-31 03:41:00,
2013-01-30 22:48:00,56.3,53.4,29.49,SSE,163,6.0,9.0,90,0.00,,,0.02,Wunderground v.1.15,2013-01-31 03:48:00,
2013-01-30 22:53:00,56.3,53.4,29.49,ESE,111,6.0,9.0,90,0.00,,,0.02,Wunderground v.1.15,2013-01-31 03:53:00,
2013-01-30 22:59:00,56.3,53.4,29.48,South,191,7.0,9.0,90,0.00,,,0.02,Wunderground v.1.15,2013-01-31 03:59:00,
2013-01-30 23:05:00,56.3,53.4,29.48,WSW,249,7.0,10.0,90,0.00,,,0.02,Wunderground v.1.15,2013-01-31 04:05:00,
2013-01-30 23:10:00,56.5,53.6,29.47,SSW,192,9.0,22.0,90,0.00,,,0.02,Wunderground v.1.15,2013-01-31 04:10:00,
2013-01-30 23:16:00,56.4,53.5,29.47,SSE,150,8.0,19.0,90,0.00,,,0.02,Wunderground v.1.15,2013-01-31 04:16:00,
2013-01-30 23:21:00,56.5,53.6,29.46,SW,217,6.0,25.0,90,0.00,,,0.02,Wunderground v.1.15,2013-01-31 04:21:00,
2013-01-30 23:28:00,56.6,53.7,29.47,SW,234,7.0,10.0,90,0.00,,,0.02,Wunderground v.1.15,2013-01-31 04:28:00,
2013-01-30 23:34:00,56.7,53.8,29.47,SSW,209,7.0,15.0,90,0.00,,,0.02,Wunderground v.1.15,2013-01-31 04:34:00,
2013-01-30 23:40:00,56.8,53.9,29.46,SSW,200,8.0,18.0,90,0.00,,,0.02,Wunderground v.1.15,2013-01-31 04:40:00,
2013-01-30 23:46:00,56.9,54.0,29.45,SSW,211,8.0,15.0,90,0.00,,,0.02,Wunderground v.1.15,2013-01-31 04:46:00,
2013-01-30 23:51:00,57.2,54.3,29.44,WSW,248,8.0,15.0,90,0.00,,,0.02,Wunderground v.1.15,2013-01-31 04:51:00,
2013-01-30 23:56:00,57.4,54.5,29.43,South,178,9.0,10.0,90,0.00,,,0.02,Wunderground v.1.15,2013-01-31 04:56:00,